Location: Newark
(40.3500°N, 15.2333°E)
Time: 18:01:46
(UTC+00:00)

Altair - Pass Details

Date: 27 January 2020
Orbit: 1502 x 1682 km, 47.2° (Epoch: 22 February)

Event Time Altitude Azimuth Distance (km) Brightness Sun altitude
Rises 15:18:24 0° 292° (WNW) 4,921 10.7 7.9°
Reaches altitude 10° 15:22:40 10° 278° (W) 3,911 10.6 7.2°
Maximum altitude 15:29:16 20° 235° (SW) 3,126 11.2 6.2°
Drops below altitude 10° 15:35:45 10° 193° (SSW) 3,813 10.3 5.1°
Sets 15:39:54 0° 177° (S) 4,762 10.5 4.4°
